GW5214 Weather Reports


Display with metric or nautical units.
time (UTC)temp
F
wind
direction
speed
MPH
gust
MPH
rain 1hr
in
rain 24hr
in
rain mn
in
humidity
%
barometer
mb
20260502161559 61 190 0.0 4.0 0.00 0.00 0.00 39 1016.1
20260502151600 58 90 2.0 5.0 0.00 0.00 0.00 33 1016.3
20260502123010 47 342 0.0 2.0 0.00 0.00 0.00 37 1015.6
20260502121543 48 5 2.0 3.0 0.00 0.00 0.00 35 1015.6
20260502114540 48 15 1.0 4.0 0.00 0.00 0.00 38 1015.5
20260502113013 48 19 1.0 3.0 0.00 0.00 0.00 38 1015.6
20260502111538 48 9 0.0 4.0 0.00 0.00 0.00 39 1015.7
20260502110007 47 9 1.0 3.0 0.00 0.00 0.00 41 1015.7
20260502104543 48 346 1.0 3.0 0.00 0.00 0.00 42 1015.6
20260502103005 46 355 1.0 3.0 0.00 0.00 0.00 46 1015.7
20260502101553 47 335 1.0 2.0 0.00 0.00 0.00 46 1015.7
20260502080106 54 22 1.0 3.0 0.00 0.00 0.00 26 1015.5
20260502071522 52 320 0.0 4.0 0.00 0.00 0.00 35 1015.4
20260502070054 51 14 2.0 3.0 0.00 0.00 0.00 38 1015.6
20260502064529 51 339 0.0 2.0 0.00 0.00 0.00 38 1015.6
20260502063057 51 346 1.0 2.0 0.00 0.00 0.00 39 1015.5
20260502061519 51 17 1.0 3.0 0.00 0.00 0.00 39 1015.4
20260502054519 53 312 0.0 3.0 0.00 0.00 0.00 38 1015.2
20260502053059 52 360 1.0 3.0 0.00 0.00 0.00 40 1015.2
20260502051515 52 10 0.0 3.0 0.00 0.00 0.00 41 1015.1
20260502050049 52 323 0.0 2.0 0.00 0.00 0.00 42 1015.2
20260502044513 53 326 0.0 3.0 0.00 0.00 0.00 40 1015.0
20260502043043 52 342 0.0 2.0 0.00 0.00 0.00 41 1015.0
20260502041511 53 322 0.0 3.0 0.00 0.00 0.00 40 1014.9
20260502040044 54 351 0.0 2.0 0.00 0.00 0.00 39 1014.9
20260502034511 55 351 1.0 4.0 0.00 0.00 0.00 37 1014.8
20260502033039 56 325 0.0 3.0 0.00 0.00 0.00 34 1014.5
20260502031505 56 323 1.0 3.0 0.00 0.00 0.00 34 1014.3
20260502030035 57 34 0.0 4.0 0.00 0.00 0.00 33 1014.1
20260502024504 56 34 1.0 3.0 0.00 0.00 0.00 36 1013.9
20260502023034 58 46 0.0 2.0 0.00 0.00 0.00 36 1013.8
20260502021502 59 27 0.0 2.0 0.00 0.00 0.00 33 1013.7
20260502020033 60 258 0.0 1.0 0.00 0.00 0.00 33 1013.7
20260502014604 61 348 0.0 5.0 0.00 0.00 0.00 30 1013.5
20260502013031 61 294 2.0 8.0 0.00 0.00 0.00 29 1013.5
20260502011611 62 304 1.0 6.0 0.00 0.00 0.00 28 1013.4
20260502010028 63 280 2.0 9.0 0.00 0.00 0.00 27 1013.5
20260502004606 64 299 4.0 8.0 0.00 0.00 0.00 25 1013.4
20260502003027 64 262 2.0 8.0 0.00 0.00 0.00 26 1013.5
20260502001556 65 11 3.0 10.0 0.00 0.00 0.00 26 1013.5
20260502000025 65 301 2.0 11.0 0.00 0.00 0.00 27 1013.5
20260501234556 64 269 1.0 10.0 0.00 0.00 0.00 26 1013.5
20260501233024 65 339 3.0 7.0 0.00 0.00 0.00 28 1013.7
20260501231602 64 296 5.0 8.0 0.00 0.00 0.00 25 1013.7
20260501230022 64 261 3.0 10.0 0.00 0.00 0.00 27 1013.8
20260501224557 65 343 4.0 10.0 0.00 0.00 0.00 26 1013.9
20260501223016 64 27 3.0 12.0 0.00 0.00 0.00 26 1014.0
20260501221606 64 292 3.0 14.0 0.00 0.00 0.00 29 1014.3
20260501220006 65 331 3.0 9.0 0.00 0.00 0.00 29 1014.4
20260501214537 65 321 3.0 8.0 0.00 0.00 0.00 28 1014.6
20260501213002 64 194 3.0 7.0 0.00 0.00 0.00 31 1014.8
20260501211534 63 248 4.0 9.0 0.00 0.00 0.00 30 1015.0
20260501210002 64 221 2.0 7.0 0.00 0.00 0.00 33 1015.1
20260501204533 63 16 4.0 10.0 0.00 0.00 0.00 32 1015.2
20260501203001 63 203 3.0 11.0 0.00 0.00 0.00 32 1015.2
20260501201531 63 259 3.0 11.0 0.00 0.00 0.00 29 1015.3
20260501194530 63 245 5.0 9.0 0.00 0.00 0.00 30 1015.4
20260501193101 63 335 2.0 6.0 0.00 0.00 0.00 28 1015.6
20260501191533 62 259 3.0 9.0 0.00 0.00 0.00 29 1015.8
20260501190116 62 284 2.0 6.0 0.00 0.00 0.00 29 1016.0
20260501184535 61 252 2.0 9.0 0.00 0.00 0.00 34 1016.2
20260501183101 62 195 1.0 5.0 0.00 0.00 0.00 24 1016.4
20260501181526 60 134 1.0 6.0 0.00 0.00 0.00 29 1016.5
20260501180056 58 91 2.0 7.0 0.00 0.00 0.00 26 1016.7
20260501174527 60 127 2.0 8.0 0.00 0.00 0.00 25 1016.7
20260501173056 58 55 2.0 11.0 0.00 0.00 0.00 25 1016.7
20260501171523 58 123 3.0 8.0 0.00 0.00 0.00 25 1016.9
20260501170056 58 119 3.0 10.0 0.00 0.00 0.00 27 1017.0
20260501164529 57 82 4.0 13.0 0.00 0.00 0.00 29 1017.0
20260501163057 56 140 4.0 16.0 0.00 0.00 0.00 29 1017.1